Simultaneous Nadir Overpasses (SNOs) Predictions

Prediction of SNOs between LANDSAT-8 and METOP-B Satellite Orbit:

Table of predicted SNOs for the next 14.0 days since TLE Epoch: 1/26/2018
Index Date (LANDSAT-8) Time (LANDSAT-8) Lat,Lon (LANDSAT-8) SZA (LANDSAT-8 ) Date (METOP-B) Time (METOP-B) Lat,Lon (METOP-B) SZA (METOP-B ) Distance(km) Time Diff (sec)
1 01/27/2018 08:20:48 -81.13, -85.41 78.80 01/27/2018 08:20:16 -81.14, -85.27 78.80 2.46 32
2 01/27/2018 09:10:13 81.16, 82.71 101.26 01/27/2018 09:10:55 81.15, 82.56 101.26 2.70 42
3 01/30/2018 03:55:00 -81.14, -18.81 79.54 01/30/2018 03:54:37 -81.14, -18.80 79.55 0.36 23
4 01/30/2018 04:44:26 81.15, 148.92 100.47 01/30/2018 04:45:16 81.16, 149.03 100.51 2.14 50
5 02/01/2018 23:29:14 -81.13, 47.40 80.37 02/01/2018 23:29:00 -81.13, 47.29 80.38 1.85 14
6 02/02/2018 00:18:39 81.15,-144.54 99.69 02/02/2018 00:19:38 81.16,-144.51 99.72 0.56 59
7 02/04/2018 19:03:27 -81.13, 113.94 81.19 02/04/2018 19:03:21 -81.14, 114.12 81.16 3.18 6
8 02/04/2018 19:52:52 81.16, -78.02 98.87 02/04/2018 19:54:00 81.16, -78.07 98.89 0.80 68
9 02/07/2018 13:48:13 81.11, 12.45 97.92 02/07/2018 13:47:03 81.11, 12.36 97.89 1.58 70




NCC Satellite Simultaneous Nadir Overpasses (SNOs) Prediction Service
